Change the Weather History Date:

Sunday, July 28, 2013

  Actual Average Record
Temperature  
Mean Temperature 70 °F 70 °F  
Max Temperature 89 °F 89 °F 101 °F (1968)
Min Temperature 51 °F 53 °F 37 °F (1949)
Degree Days  
Heating Degree Days 0 1  
Month to date heating degree days 0 39  
Since 1 June heating degree days 141 199  
Since 1 July heating degree days 0 39  
Cooling Degree Days 5 6  
Month to date cooling degree days 235 134  
Year to date cooling degree days 282 177  
Since 1 June cooling degree days 278 171  
Growing Degree Days 20 (Base 50)    
Moisture  
Dew Point 32 °F    
Average Humidity 32    
Maximum Humidity 55    
Minimum Humidity 9    
Precipitation  
Precipitation 0.00 in 0.03 in 0.68 in (1905)
Month to date precipitation 0.09 0.90  
Year to date precipitation 5.90 8.75  
Snow  
Snow 0.00 in - - ()
Month to date snowfall 0.0  
Year to date snowfall 27.4  
Since 1 July snowfall 0.0  
Snow Depth 0.00 in    
Sea Level Pressure  
Sea Level Pressure 29.82 in    
Wind  
Wind Speed 6 mph (NW)    
Max Wind Speed 22 mph    
Max Gust Speed 29 mph    
Visibility 9 miles    
Events      
T = Trace of Precipitation, MM = Missing Value Source: NWS Daily Summary

Daily Weather History Graph

Daily Weather History Graph

Search for Another Location

Airport or City:

Trip Planner

Search our weather history database for the weather conditions in past years. The results will help you decide how hot, cold, wet, or windy it might be!

Date:

Astronomy

Jul. 28, 2013 Rise Set
Actual Time 6:11 AM MDT 9:13 PM MDT
Civil Twilight 5:35 AM MDT 9:49 PM MDT
Nautical Twilight 4:49 AM MDT 10:35 PM MDT
Astronomical Twilight 3:52 AM MDT 11:31 PM MDT
Moon No Moon Rise 1:28 PM MDT (7/28)
Length of Visible Light 16h 13m
Length of Day
15h 01m
Waning Gibbous, 60% of the Moon is Illuminated
Jul 28
Waning Gibbous
Jul 29
Last Quarter
Aug 6
New
Aug 14
First Quarter
Aug 20
Full

Hourly Weather History & Observations

Time (MDT) Temp. Dew Point Humidity Pressure Visibility Wind Dir Wind Speed Gust Speed Precip Events Conditions
12:53 AM 64.9 °F 36.0 °F 34% 29.85 in 10.0 mi WNW 6.9 mph - N/A   Clear
1:53 AM 64.0 °F 37.0 °F 37% 29.84 in 10.0 mi Calm Calm - N/A   Clear
2:53 AM 63.0 °F 37.9 °F 40% 29.85 in 10.0 mi NNW 3.5 mph - N/A   Clear
3:53 AM 57.9 °F 36.0 °F 44% 29.86 in 10.0 mi Calm Calm - N/A   Clear
4:53 AM 55.0 °F 37.0 °F 51% 29.86 in 10.0 mi Calm Calm - N/A   Clear
5:53 AM 53.1 °F 37.0 °F 55% 29.88 in 10.0 mi NE 3.5 mph - N/A   Clear
6:53 AM 54.0 °F 37.0 °F 53% 29.88 in 10.0 mi Calm Calm - N/A   Clear
7:53 AM 55.9 °F 39.0 °F 53% 29.89 in 10.0 mi Calm Calm - N/A   Clear
8:53 AM 61.0 °F 37.0 °F 41% 29.89 in 10.0 mi Variable 3.5 mph - N/A   Clear
11:53 AM 75.9 °F 36.0 °F 23% 29.83 in 10.0 mi Variable 3.5 mph - N/A   Clear
12:53 PM 82.0 °F 28.9 °F 14% 29.81 in 10.0 mi Variable 3.5 mph - N/A   Clear
1:53 PM 82.9 °F 26.1 °F 13% 29.79 in 10.0 mi Variable 5.8 mph - N/A   Clear
2:53 PM 84.9 °F 27.0 °F 12% 29.77 in 10.0 mi NNW 11.5 mph - N/A   Clear
3:53 PM 87.1 °F 26.1 °F 11% 29.75 in 10.0 mi NW 12.7 mph - N/A   Clear
4:53 PM 87.1 °F 21.9 °F 9% 29.75 in 9.0 mi NW 18.4 mph 28.8 mph N/A   Clear
5:53 PM 86.0 °F 26.1 °F 11% 29.75 in 9.0 mi WNW 17.3 mph 21.9 mph N/A   Clear
6:53 PM 84.0 °F 28.0 °F 13% 29.75 in 9.0 mi NNW 15.0 mph 21.9 mph N/A   Clear
7:53 PM 82.0 °F 25.0 °F 12% 29.77 in 7.0 mi WNW 15.0 mph - N/A   Clear
8:53 PM 75.0 °F 25.0 °F 16% 29.78 in 6.0 mi NNW 4.6 mph - N/A   Haze
9:53 PM 68.0 °F 28.9 °F 23% 29.80 in 7.0 mi North 5.8 mph - N/A   Clear
10:53 PM 64.9 °F 28.9 °F 26% 29.82 in 8.0 mi Calm Calm - N/A   Clear